Location: Vista Encantada
(35.1109°N, 106.5681°W)
Time: 23:48:36
(UTC+00:00)

Nauka - Visible Passes

Search period start: 28 September 2021 00:00
Search period end: 08 October 2021 00:00
Orbit: 417 x 423 km, 51.6° (Epoch: 28 September)

Date Brightness Start Highest point End Pass type
(mag) Time Alt. Az. Time Alt. Az. Time Alt. Az.
01 Oct ? 02:55:35 10° NNW 02:55:57 12° NNW 02:55:57 12° NNW visible
02 Oct ? 02:08:47 10° N 02:10:30 14° NNE 02:10:30 14° NNE visible
03 Oct ? 02:57:09 10° NW 02:58:05 17° NW 02:58:05 17° NW visible
04 Oct ? 02:09:58 10° NNW 02:12:47 31° NNE 02:12:47 31° NNE visible
05 Oct ? 01:22:57 10° NNW 01:25:32 20° NNE 01:27:34 13° ENE visible
05 Oct ? 02:59:17 10° WNW 03:00:34 20° WNW 03:00:34 20° WNW visible
06 Oct ? 02:11:46 10° NW 02:15:08 78° SW 02:15:28 67° SSE visible
07 Oct ? 01:24:25 10° NW 01:27:44 55° NE 01:30:33 13° ESE visible
07 Oct ? 03:02:59 10° WSW 03:03:33 11° WSW 03:03:33 11° WSW visible
